Tracking 28915 objects as of 30-May-2024
HD Live streaming from Space Station
objects crossing your sky now

OBJECT N

Track OBJECT N now!
10-day predictions
OBJECT N is classified as:


NORAD ID: 59063
Int'l Code: 2024-039N
Perigee: 480.5 km
Apogee: 500.0 km
Inclination: 97.4 °
Period: 94.3 minutes
Semi major axis: 6861 km
RCS: Unknown
Launch date: February 29, 2024
Source: (TBD)
Launch site: VOSTOCHNY COSMODROME (VOSTO)

Uplink (MHz):
Downlink (MHz): 401.220
Beacon (MHz):
Mode: 2k4 GMSK_USP
Call sign:
Status: Unknown


Note: This is a ROCKET BODY
Your satellite tracking list
Your tracking list is empty




NASA's NSSDC Master Catalog

Two Line Element Set (TLE):
1 59063U 24039N   24151.17875561  .00018814  00000-0  69763-3 0  9990
2 59063  97.3912 113.4110 0014194 282.4410  77.5241 15.27565737 13858
Source of the keplerian elements: AFSPC